Time,TemperatureF,DewpointF,PressureIn,WindDirection,WindDirectionDegrees,WindSpeedMPH,WindSpeedGustMPH,Humidity,HourlyPrecipIn,Conditions,Clouds,dailyrainin,SolarRadiationWatts/m^2,SoftwareType,DateUTC
2013-01-24 00:12:00,28.0,7.0,-100.00,WSW,252,3.0,6.0,41,0.00,,,0.00,0.000000,,2013-01-24 07:12:00,
2013-01-24 00:22:00,28.0,7.0,-100.00,WSW,252,3.0,6.0,41,0.00,,,0.00,0.000000,,2013-01-24 07:22:00,
2013-01-24 00:32:00,28.0,7.0,-100.00,WSW,252,3.0,6.0,41,0.00,,,0.00,0.000000,,2013-01-24 07:32:00,
2013-01-24 00:42:00,28.0,7.0,-100.00,WSW,252,3.0,6.0,41,0.00,,,0.00,0.000000,,2013-01-24 07:42:00,
2013-01-24 01:12:00,29.0,7.0,-100.00,WSW,248,3.0,6.0,39,0.00,,,0.00,0.000000,,2013-01-24 08:12:00,
2013-01-24 01:22:00,29.0,7.0,-100.00,WSW,248,3.0,6.0,39,0.00,,,0.00,0.000000,,2013-01-24 08:22:00,
2013-01-24 01:32:00,29.0,7.0,-100.00,WSW,248,3.0,6.0,39,0.00,,,0.00,0.000000,,2013-01-24 08:32:00,
2013-01-24 01:42:00,29.0,7.0,-100.00,WSW,248,3.0,6.0,39,0.00,,,0.00,0.000000,,2013-01-24 08:42:00,
2013-01-24 02:12:00,28.0,8.0,-100.00,SSW,196,3.0,6.0,42,0.00,,,0.00,0.000000,,2013-01-24 09:12:00,
2013-01-24 02:22:00,28.0,8.0,-100.00,SSW,196,3.0,6.0,42,0.00,,,0.00,0.000000,,2013-01-24 09:22:00,
2013-01-24 02:32:00,28.0,8.0,-100.00,SSW,196,3.0,6.0,42,0.00,,,0.00,0.000000,,2013-01-24 09:32:00,
2013-01-24 02:42:00,28.0,8.0,-100.00,SSW,196,3.0,6.0,42,0.00,,,0.00,0.000000,,2013-01-24 09:42:00,
2013-01-24 03:12:00,28.0,8.0,-100.00,SSW,207,1.0,9.0,42,0.00,,,-99.99,0.000000,,2013-01-24 10:12:00,
2013-01-24 03:22:00,28.0,8.0,-100.00,SSW,207,1.0,9.0,42,0.00,,,-99.99,0.000000,,2013-01-24 10:22:00,
2013-01-24 03:32:00,28.0,8.0,-100.00,SSW,207,1.0,9.0,42,0.00,,,-99.99,0.000000,,2013-01-24 10:32:00,
2013-01-24 03:42:00,28.0,8.0,-100.00,SSW,207,1.0,9.0,42,0.00,,,-99.99,0.000000,,2013-01-24 10:42:00,
2013-01-24 04:12:00,29.0,7.0,-100.00,WSW,241,3.0,6.0,38,0.00,,,0.00,0.000000,,2013-01-24 11:12:00,
2013-01-24 04:22:00,29.0,7.0,-100.00,WSW,241,3.0,6.0,38,0.00,,,0.00,0.000000,,2013-01-24 11:22:00,
2013-01-24 04:32:00,29.0,7.0,-100.00,WSW,241,3.0,6.0,38,0.00,,,0.00,0.000000,,2013-01-24 11:32:00,
2013-01-24 04:42:00,29.0,7.0,-100.00,WSW,241,3.0,6.0,38,0.00,,,0.00,0.000000,,2013-01-24 11:42:00,
2013-01-24 05:12:00,28.0,11.0,-100.00,WNW,286,6.0,9.0,49,0.00,,,0.00,0.000000,,2013-01-24 12:12:00,
2013-01-24 05:22:00,28.0,11.0,-100.00,WNW,286,6.0,9.0,49,0.00,,,0.00,0.000000,,2013-01-24 12:22:00,
2013-01-24 05:32:00,28.0,11.0,-100.00,WNW,286,6.0,9.0,49,0.00,,,0.00,0.000000,,2013-01-24 12:32:00,
2013-01-24 05:42:00,28.0,11.0,-100.00,WNW,286,6.0,9.0,49,0.00,,,0.00,0.000000,,2013-01-24 12:42:00,
2013-01-24 06:12:00,27.0,12.0,-100.00,SW,232,3.0,8.0,52,0.00,,,0.00,0.000000,,2013-01-24 13:12:00,
2013-01-24 06:22:00,27.0,12.0,-100.00,SW,232,3.0,8.0,52,0.00,,,0.00,0.000000,,2013-01-24 13:22:00,
2013-01-24 06:32:00,27.0,12.0,-100.00,SW,232,3.0,8.0,52,0.00,,,0.00,0.000000,,2013-01-24 13:32:00,
2013-01-24 06:42:00,27.0,12.0,-100.00,SW,232,3.0,8.0,52,0.00,,,0.00,0.000000,,2013-01-24 13:42:00,
2013-01-24 07:12:00,28.0,12.0,-100.00,SE,142,5.0,7.0,51,0.00,,,-99.99,0.000000,,2013-01-24 14:12:00,
2013-01-24 07:22:00,28.0,12.0,-100.00,SE,142,5.0,7.0,51,0.00,,,-99.99,0.000000,,2013-01-24 14:22:00,
2013-01-24 07:33:00,28.0,12.0,-100.00,SE,142,5.0,7.0,51,0.00,,,-99.99,0.000000,,2013-01-24 14:33:00,
2013-01-24 07:43:00,28.0,12.0,-100.00,SE,142,5.0,7.0,51,0.00,,,-99.99,0.000000,,2013-01-24 14:43:00,
2013-01-24 08:12:00,30.0,12.0,-100.00,SSE,162,3.0,5.0,46,0.00,,,0.00,2.000000,,2013-01-24 15:12:00,
2013-01-24 08:22:00,30.0,12.0,-100.00,SSE,162,3.0,5.0,46,0.00,,,0.00,2.000000,,2013-01-24 15:22:00,
2013-01-24 08:33:00,30.0,12.0,-100.00,SSE,162,3.0,5.0,46,0.00,,,0.00,2.000000,,2013-01-24 15:33:00,
2013-01-24 08:42:00,30.0,12.0,-100.00,SSE,162,3.0,5.0,46,0.00,,,0.00,2.000000,,2013-01-24 15:42:00,
2013-01-24 09:12:00,34.0,13.0,-100.00,South,188,1.0,5.0,42,0.00,,,0.00,51.000000,,2013-01-24 16:12:00,
2013-01-24 09:22:00,34.0,13.0,-100.00,South,188,1.0,5.0,42,0.00,,,0.00,51.000000,,2013-01-24 16:22:00,
2013-01-24 09:33:00,34.0,13.0,-100.00,South,188,1.0,5.0,42,0.00,,,0.00,51.000000,,2013-01-24 16:33:00,
2013-01-24 09:42:00,34.0,13.0,-100.00,South,188,1.0,5.0,42,0.00,,,0.00,51.000000,,2013-01-24 16:42:00,
2013-01-24 10:12:00,38.0,12.0,-100.00,SSE,163,0.0,8.0,34,0.00,,,0.00,169.000000,,2013-01-24 17:12:00,
2013-01-24 10:21:00,38.0,12.0,-100.00,SSE,163,0.0,8.0,34,0.00,,,0.00,169.000000,,2013-01-24 17:21:00,
2013-01-24 10:32:00,38.0,12.0,-100.00,SSE,163,0.0,8.0,34,0.00,,,0.00,169.000000,,2013-01-24 17:32:00,
2013-01-24 10:42:00,38.0,12.0,-100.00,SSE,163,0.0,8.0,34,0.00,,,0.00,169.000000,,2013-01-24 17:42:00,
2013-01-24 11:12:00,40.0,16.0,-100.00,ESE,114,4.0,7.0,38,0.00,,,0.00,260.000000,,2013-01-24 18:12:00,
2013-01-24 11:22:00,40.0,16.0,-100.00,ESE,114,4.0,7.0,38,0.00,,,0.00,260.000000,,2013-01-24 18:22:00,
2013-01-24 11:32:00,40.0,16.0,-100.00,ESE,114,4.0,7.0,38,0.00,,,0.00,260.000000,,2013-01-24 18:32:00,
2013-01-24 11:42:00,40.0,16.0,-100.00,ESE,114,4.0,7.0,38,0.00,,,0.00,260.000000,,2013-01-24 18:42:00,
2013-01-24 12:12:00,41.0,18.0,-100.00,NW,326,4.0,6.0,39,0.00,,,0.00,319.000000,,2013-01-24 19:12:00,
2013-01-24 12:21:00,41.0,18.0,-100.00,NW,326,4.0,6.0,39,0.00,,,0.00,319.000000,,2013-01-24 19:21:00,
2013-01-24 12:32:00,41.0,18.0,-100.00,NW,326,4.0,6.0,39,0.00,,,0.00,319.000000,,2013-01-24 19:32:00,
2013-01-24 12:42:00,41.0,18.0,-100.00,NW,326,4.0,6.0,39,0.00,,,0.00,319.000000,,2013-01-24 19:42:00,
2013-01-24 13:11:00,44.0,30.0,-100.00,SW,216,4.0,9.0,57,0.00,,,0.00,216.000000,,2013-01-24 20:11:00,
2013-01-24 13:22:00,44.0,30.0,-100.00,SW,216,4.0,9.0,57,0.00,,,0.00,216.000000,,2013-01-24 20:22:00,
2013-01-24 13:32:00,44.0,30.0,-100.00,SW,216,4.0,9.0,57,0.00,,,0.00,216.000000,,2013-01-24 20:32:00,
2013-01-24 13:42:00,44.0,30.0,-100.00,SW,216,4.0,9.0,57,0.00,,,0.00,216.000000,,2013-01-24 20:42:00,
2013-01-24 14:02:00,38.0,19.0,-100.00,NNW,327,3.0,10.0,45,-99.99,,,0.00,156.000000,,2013-01-24 21:02:00,
2013-01-24 14:12:00,38.0,19.0,-100.00,NNW,327,3.0,10.0,45,-99.99,,,0.00,156.000000,,2013-01-24 21:12:00,
2013-01-24 14:22:00,38.0,19.0,-100.00,NNW,327,3.0,10.0,45,-99.99,,,0.00,156.000000,,2013-01-24 21:22:00,
2013-01-24 14:32:00,38.0,19.0,-100.00,NNW,327,3.0,10.0,45,-99.99,,,0.00,156.000000,,2013-01-24 21:32:00,
2013-01-24 14:42:00,38.0,19.0,-100.00,NNW,327,3.0,10.0,45,-99.99,,,0.00,156.000000,,2013-01-24 21:42:00,
2013-01-24 15:12:00,37.0,20.0,-100.00,NNW,345,7.0,9.0,49,0.00,,,0.00,194.000000,,2013-01-24 22:12:00,
2013-01-24 15:22:00,37.0,20.0,-100.00,NNW,345,7.0,9.0,49,0.00,,,0.00,194.000000,,2013-01-24 22:22:00,
2013-01-24 15:32:00,37.0,20.0,-100.00,NNW,345,7.0,9.0,49,0.00,,,0.00,194.000000,,2013-01-24 22:32:00,
2013-01-24 15:42:00,37.0,20.0,-100.00,NNW,345,7.0,9.0,49,0.00,,,0.00,194.000000,,2013-01-24 22:42:00,
2013-01-24 16:12:00,36.0,20.0,-100.00,North,356,4.0,10.0,52,0.00,,,0.00,184.000000,,2013-01-24 23:12:00,
2013-01-24 16:21:00,36.0,20.0,-100.00,North,356,4.0,10.0,52,0.00,,,0.00,184.000000,,2013-01-24 23:21:00,
2013-01-24 16:32:00,36.0,20.0,-100.00,North,356,4.0,10.0,52,0.00,,,0.00,184.000000,,2013-01-24 23:32:00,
2013-01-24 16:42:00,36.0,20.0,-100.00,North,356,4.0,10.0,52,0.00,,,0.00,184.000000,,2013-01-24 23:42:00,
2013-01-24 17:12:00,33.0,20.0,-100.00,NNW,335,3.0,5.0,59,0.00,,,0.00,88.000000,,2013-01-25 00:12:00,
2013-01-24 17:22:00,33.0,20.0,-100.00,NNW,335,3.0,5.0,59,0.00,,,0.00,88.000000,,2013-01-25 00:22:00,
2013-01-24 17:32:00,33.0,20.0,-100.00,NNW,335,3.0,5.0,59,0.00,,,0.00,88.000000,,2013-01-25 00:32:00,
2013-01-24 17:41:00,33.0,20.0,-100.00,NNW,335,3.0,5.0,59,0.00,,,0.00,88.000000,,2013-01-25 00:41:00,
2013-01-24 18:12:00,32.0,23.0,-100.00,North,355,1.0,3.0,69,0.00,,,0.00,12.000000,,2013-01-25 01:12:00,
2013-01-24 18:21:00,32.0,23.0,-100.00,North,355,1.0,3.0,69,0.00,,,0.00,12.000000,,2013-01-25 01:21:00,
2013-01-24 18:31:00,32.0,23.0,-100.00,North,355,1.0,3.0,69,0.00,,,0.00,12.000000,,2013-01-25 01:31:00,
2013-01-24 18:41:00,32.0,23.0,-100.00,North,355,1.0,3.0,69,0.00,,,0.00,12.000000,,2013-01-25 01:41:00,
2013-01-24 19:02:00,31.0,23.0,-100.00,SSW,205,0.0,4.0,72,0.00,,,0.00,0.000000,,2013-01-25 02:02:00,
2013-01-24 19:11:00,31.0,23.0,-100.00,SSW,205,0.0,4.0,72,0.00,,,0.00,0.000000,,2013-01-25 02:11:00,
2013-01-24 19:22:00,31.0,23.0,-100.00,SSW,205,0.0,4.0,72,0.00,,,0.00,0.000000,,2013-01-25 02:22:00,
2013-01-24 19:32:00,31.0,23.0,-100.00,SSW,205,0.0,4.0,72,0.00,,,0.00,0.000000,,2013-01-25 02:32:00,
2013-01-24 19:42:00,31.0,23.0,-100.00,SSW,205,0.0,4.0,72,0.00,,,0.00,0.000000,,2013-01-25 02:42:00,
2013-01-24 20:12:00,31.0,25.0,-100.00,West,280,0.0,3.0,78,0.00,,,0.00,0.000000,,2013-01-25 03:12:00,
2013-01-24 20:22:00,31.0,25.0,-100.00,West,280,0.0,3.0,78,0.00,,,0.00,0.000000,,2013-01-25 03:22:00,
2013-01-24 20:32:00,31.0,25.0,-100.00,West,280,0.0,3.0,78,0.00,,,0.00,0.000000,,2013-01-25 03:32:00,
2013-01-24 20:41:00,31.0,25.0,-100.00,West,280,0.0,3.0,78,0.00,,,0.00,0.000000,,2013-01-25 03:41:00,
2013-01-24 21:12:00,30.0,25.0,-100.00,ESE,109,0.0,1.0,82,0.00,,,-99.99,0.000000,,2013-01-25 04:12:00,
2013-01-24 21:22:00,30.0,25.0,-100.00,ESE,109,0.0,1.0,82,0.00,,,-99.99,0.000000,,2013-01-25 04:22:00,
2013-01-24 21:31:00,30.0,25.0,-100.00,ESE,109,0.0,1.0,82,0.00,,,-99.99,0.000000,,2013-01-25 04:31:00,
2013-01-24 21:41:00,30.0,25.0,-100.00,ESE,109,0.0,1.0,82,0.00,,,-99.99,0.000000,,2013-01-25 04:41:00,
2013-01-24 22:12:00,30.0,26.0,-100.00,ESE,109,2.0,5.0,86,0.00,,,0.00,0.000000,,2013-01-25 05:12:00,
2013-01-24 22:22:00,30.0,26.0,-100.00,ESE,109,2.0,5.0,86,0.00,,,0.00,0.000000,,2013-01-25 05:22:00,
2013-01-24 22:32:00,30.0,26.0,-100.00,ESE,109,2.0,5.0,86,0.00,,,0.00,0.000000,,2013-01-25 05:32:00,
2013-01-24 22:42:00,30.0,26.0,-100.00,ESE,109,2.0,5.0,86,0.00,,,0.00,0.000000,,2013-01-25 05:42:00,
2013-01-24 23:11:00,31.0,27.0,-100.00,NNE,22,1.0,3.0,86,0.00,,,0.00,0.000000,,2013-01-25 06:11:00,
2013-01-24 23:21:00,31.0,27.0,-100.00,NNE,22,1.0,3.0,86,0.00,,,0.00,0.000000,,2013-01-25 06:21:00,
2013-01-24 23:31:00,31.0,27.0,-100.00,NNE,22,1.0,3.0,86,0.00,,,0.00,0.000000,,2013-01-25 06:31:00,
2013-01-24 23:41:00,31.0,27.0,-100.00,NNE,22,1.0,3.0,86,0.00,,,0.00,0.000000,,2013-01-25 06:41:00,